When you browse on this site, cookies collect data to enhance your experience and personalize the content and advertising you see.
Visit our Privacy Policy to learn more. By continuing to use the site, you agree to this use of cookies and data.
  • In Lithuania
  • List of Countries
  • For 7 days
  • Water Temperature
  • Weather Map
  • Weather Widgets
  • user-avatar
    Login

    Hourly Weather Kaszowka

    Today, 6 June, Saturday

    Time Temperature Precipitation Wind Pressure Humidity
    00:00 +12°C° 0 mm 5 mps 735 mmHg 84%
    01:00 +12°C° 0 mm 5 mps 736 mmHg 84%
    02:00 +12°C° 0 mm 5 mps 736 mmHg 84%
    03:00 +12°C° 0 mm 5 mps 736 mmHg 84%
    04:00 +12°C° 0 mm 5 mps 737 mmHg 84%
    05:00 +13°C° 0 mm 5 mps 737 mmHg 81%
    06:00 +14°C° 0 mm 6 mps 737 mmHg 77%
    07:00 +15°C° 0 mm 6 mps 738 mmHg 73%
    08:00 +15°C° 0 mm 5 mps 738 mmHg 73%
    09:00 +15°C° 0 mm 4 mps 738 mmHg 73%
    10:00 +17°C° 0 mm 3 mps 738 mmHg 73%
    11:00 +17°C° 0.1 mm 4 mps 738 mmHg 75%
    12:00 +18°C° 0.1 mm 4 mps 739 mmHg 77%
    13:00 +18°C° 0.1 mm 4 mps 739 mmHg 79%
    14:00 +18°C° 0.4 mm 4 mps 739 mmHg 79%
    15:00 +19°C° 0.4 mm 4 mps 739 mmHg 78%
    16:00 +19°C° 0.4 mm 4 mps 739 mmHg 78%
    17:00 +18°C° 0.3 mm 3 mps 739 mmHg 81%
    18:00 +17°C° 0.3 mm 3 mps 739 mmHg 84%
    19:00 +16°C° 0.3 mm 2 mps 739 mmHg 87%
    20:00 +16°C° 0.3 mm 2 mps 739 mmHg 87%
    21:00 +16°C° 0.3 mm 2 mps 739 mmHg 88%
    22:00 +15°C° 0.3 mm 1 mps 740 mmHg 88%
    23:00 +15°C° 0.7 mm 1 mps 740 mmHg 90%

    Tomorrow, 7 June, Sunday

    Time Temperature Precipitation Wind Pressure Humidity
    00:00 +15°C° 0.7 mm 2 mps 740 mmHg 92%
    01:00 +15°C° 0.7 mm 2 mps 740 mmHg 94%
    02:00 +15°C° 1.4 mm 2 mps 740 mmHg 95%
    03:00 +14°C° 1.4 mm 1 mps 739 mmHg 96%
    04:00 +14°C° 1.4 mm 1 mps 739 mmHg 96%
    05:00 +14°C° 0.7 mm 1 mps 739 mmHg 96%
    06:00 +15°C° 0.7 mm 1 mps 739 mmHg 96%
    07:00 +15°C° 0.7 mm 1 mps 739 mmHg 96%
    08:00 +16°C° 0.1 mm 1 mps 740 mmHg 92%
    09:00 +18°C° 0.1 mm 1 mps 740 mmHg 89%
    10:00 +19°C° 0.1 mm 1 mps 740 mmHg 85%
    11:00 +18°C° 0.1 mm 2 mps 740 mmHg 85%
    12:00 +18°C° 0.1 mm 2 mps 740 mmHg 85%
    13:00 +19°C° 0.1 mm 3 mps 740 mmHg 84%
    14:00 +19°C° 0.2 mm 3 mps 740 mmHg 86%
    15:00 +18°C° 0.2 mm 3 mps 740 mmHg 87%
    16:00 +18°C° 0.2 mm 3 mps 740 mmHg 88%
    17:00 +18°C° 0.2 mm 2 mps 740 mmHg 90%
    18:00 +17°C° 0.2 mm 2 mps 740 mmHg 92%
    19:00 +18°C° 0.2 mm 1 mps 740 mmHg 94%
    20:00 +17°C° 0.2 mm 2 mps 740 mmHg 95%
    21:00 +16°C° 0.2 mm 2 mps 740 mmHg 95%
    22:00 +16°C° 0.2 mm 2 mps 740 mmHg 96%
    23:00 +16°C° 0.3 mm 2 mps 740 mmHg 96%

    Day after tomorrow, 8 June, Monday

    Time Temperature Precipitation Wind Pressure Humidity
    00:00 +15°C° 0.3 mm 2 mps 740 mmHg 97%
    01:00 +15°C° 0.3 mm 2 mps 740 mmHg 97%
    02:00 +14°C° 0.4 mm 3 mps 740 mmHg 98%
    03:00 +14°C° 0.4 mm 3 mps 740 mmHg 98%
    04:00 +14°C° 0.4 mm 3 mps 740 mmHg 98%
    05:00 +14°C° 0.2 mm 3 mps 740 mmHg 98%
    06:00 +14°C° 0.2 mm 4 mps 740 mmHg 97%
    07:00 +14°C° 0.2 mm 4 mps 740 mmHg 97%
    08:00 +13°C° 0.9 mm 4 mps 740 mmHg 97%
    09:00 +13°C° 0.9 mm 4 mps 740 mmHg 97%
    10:00 +13°C° 0.9 mm 4 mps 741 mmHg 97%
    11:00 +13°C° 0.4 mm 5 mps 741 mmHg 97%
    12:00 +13°C° 0.4 mm 5 mps 741 mmHg 96%
    13:00 +13°C° 0.4 mm 5 mps 741 mmHg 96%
    14:00 +13°C° 0.2 mm 5 mps 741 mmHg 96%
    15:00 +13°C° 0.2 mm 5 mps 741 mmHg 96%
    16:00 +12°C° 0.2 mm 5 mps 742 mmHg 96%
    17:00 +12°C° 0.1 mm 4 mps 742 mmHg 96%
    18:00 +12°C° 0.1 mm 4 mps 742 mmHg 96%
    19:00 +12°C° 0.1 mm 4 mps 742 mmHg 96%
    20:00 +12°C° 0.1 mm 3 mps 742 mmHg 96%
    21:00 +12°C° 0.1 mm 3 mps 743 mmHg 97%
    22:00 +13°C° 0.1 mm 2 mps 743 mmHg 97%
    23:00 +13°C° 0.1 mm 2 mps 743 mmHg 97%

    9 June, Tuesday

    Time Temperature Precipitation Wind Pressure Humidity
    00:00 +12°C° 0.1 mm 3 mps 743 mmHg 97%
    01:00 +12°C° 0.1 mm 3 mps 743 mmHg 97%
    02:00 +12°C° 0.1 mm 3 mps 743 mmHg 97%
    03:00 +12°C° 0.1 mm 3 mps 743 mmHg 97%
    04:00 +12°C° 0.1 mm 3 mps 743 mmHg 97%
    05:00 +12°C° 0 mm 3 mps 743 mmHg 97%
    06:00 +12°C° 0 mm 3 mps 744 mmHg 96%
    07:00 +12°C° 0 mm 3 mps 744 mmHg 95%
    08:00 +13°C° 0 mm 3 mps 744 mmHg 95%
    09:00 +13°C° 0 mm 3 mps 744 mmHg 94%
    10:00 +13°C° 0 mm 3 mps 744 mmHg 93%
    11:00 +14°C° 0 mm 3 mps 744 mmHg 91%
    12:00 +14°C° 0 mm 3 mps 744 mmHg 90%
    13:00 +15°C° 0 mm 4 mps 744 mmHg 88%
    14:00 +15°C° 0 mm 4 mps 744 mmHg 88%
    15:00 +16°C° 0 mm 3 mps 744 mmHg 87%
    16:00 +17°C° 0 mm 3 mps 744 mmHg 86%
    17:00 +16°C° 0 mm 3 mps 744 mmHg 88%
    18:00 +16°C° 0 mm 3 mps 744 mmHg 90%
    19:00 +16°C° 0 mm 2 mps 744 mmHg 92%
    20:00 +15°C° 0 mm 2 mps 744 mmHg 93%
    21:00 +15°C° 0 mm 2 mps 745 mmHg 94%
    22:00 +14°C° 0 mm 2 mps 745 mmHg 95%
    23:00 +14°C° 0 mm 2 mps 745 mmHg 95%

    10 June, Wednesday

    Time Temperature Precipitation Wind Pressure Humidity
    00:00 +14°C° 0 mm 2 mps 744 mmHg 96%
    01:00 +14°C° 0 mm 2 mps 744 mmHg 96%
    02:00 +14°C° 0 mm 2 mps 744 mmHg 96%
    03:00 +14°C° 0 mm 2 mps 744 mmHg 96%
    04:00 +13°C° 0 mm 2 mps 744 mmHg 96%
    05:00 +13°C° 0 mm 2 mps 744 mmHg 95%
    06:00 +14°C° 0 mm 2 mps 744 mmHg 94%
    07:00 +13°C° 0 mm 3 mps 744 mmHg 92%
    08:00 +13°C° 0 mm 3 mps 744 mmHg 92%
    09:00 +15°C° 0 mm 2 mps 744 mmHg 91%
    10:00 +15°C° 0 mm 2 mps 744 mmHg 91%
    11:00 +14°C° 0 mm 3 mps 744 mmHg 90%
    12:00 +14°C° 0 mm 3 mps 744 mmHg 90%
    13:00 +14°C° 0 mm 4 mps 744 mmHg 90%
    14:00 +16°C° 0 mm 3 mps 743 mmHg 90%
    15:00 +16°C° 0 mm 3 mps 743 mmHg 90%
    16:00 +16°C° 0 mm 2 mps 743 mmHg 90%
    17:00 +16°C° 0 mm 2 mps 743 mmHg 90%
    18:00 +16°C° 0 mm 2 mps 743 mmHg 91%
    19:00 +16°C° 0 mm 2 mps 743 mmHg 92%
    20:00 +16°C° 0 mm 2 mps 743 mmHg 92%
    21:00 +16°C° 0 mm 2 mps 743 mmHg 93%
    22:00 +16°C° 0 mm 2 mps 743 mmHg 93%
    23:00 +16°C° 0 mm 3 mps 743 mmHg 94%

    11 June, Thursday

    Time Temperature Precipitation Wind Pressure Humidity
    00:00 +16°C° 0 mm 3 mps 743 mmHg 94%
    01:00 +16°C° 0 mm 3 mps 743 mmHg 95%
    02:00 +14°C° 0 mm 3 mps 743 mmHg 95%
    03:00 +14°C° 0 mm 3 mps 743 mmHg 94%
    04:00 +13°C° 0 mm 3 mps 742 mmHg 94%
    05:00 +13°C° 0 mm 3 mps 742 mmHg 93%
    06:00 +13°C° 0 mm 4 mps 742 mmHg 92%
    07:00 +13°C° 0 mm 4 mps 742 mmHg 91%
    08:00 +13°C° 0 mm 4 mps 742 mmHg 90%
    09:00 +13°C° 0 mm 4 mps 742 mmHg 90%
    10:00 +13°C° 0 mm 4 mps 742 mmHg 89%
    11:00 +13°C° 0 mm 4 mps 742 mmHg 88%
    12:00 +13°C° 0 mm 5 mps 742 mmHg 88%
    13:00 +14°C° 0 mm 5 mps 742 mmHg 87%
    14:00 +13°C° 0.1 mm 5 mps 742 mmHg 89%
    15:00 +13°C° 0.1 mm 5 mps 742 mmHg 90%
    16:00 +13°C° 0.1 mm 5 mps 742 mmHg 92%
    17:00 +13°C° 0.1 mm 5 mps 742 mmHg 93%
    18:00 +12°C° 0.1 mm 5 mps 742 mmHg 93%
    19:00 +12°C° 0.1 mm 4 mps 742 mmHg 94%
    20:00 +12°C° 0.2 mm 4 mps 742 mmHg 95%
    21:00 +12°C° 0.2 mm 4 mps 742 mmHg 95%
    22:00 +12°C° 0.2 mm 5 mps 742 mmHg 96%
    23:00 +12°C° 0.2 mm 4 mps 742 mmHg 96%
    Show more